Location: Seattle
(47.6064°N, 122.3308°W)
Time: 04:00:02
(UTC-08:00)

Altair - All Passes

Search period start: 30 November 2020 00:00
Search period end: 10 December 2020 00:00
Orbit: 1502 x 1682 km, 47.2° (Epoch: 30 November)

Date Brightness Start Highest point End Pass type
(mag) Time Alt. Az. Time Alt. Az. Time Alt. Az.
30 Nov - 00:13:59 10° W 00:23:14 82° SSW 00:32:27 10° ESE night (unlit)
30 Nov - 02:18:44 10° WNW 02:27:19 46° SW 02:36:00 10° SE visible
30 Nov - 04:25:41 10° W 04:30:09 15° SW 04:34:38 10° SSW visible
30 Nov - 17:41:46 10° SSE 17:46:23 15° SE 17:50:55 10° E visible
30 Nov - 19:40:26 10° SSW 19:49:15 46° SE 19:57:51 10° ENE visible
30 Nov - 21:44:00 10° WSW 21:53:22 82° SSE 22:02:33 10° E visible
30 Nov - 23:48:49 10° W 23:58:04 84° S 00:07:18 10° ESE night (unlit)
01 Dec - 01:53:34 10° WNW 02:02:14 49° SW 02:11:00 10° SE visible
01 Dec - 04:00:03 10° W 04:05:10 16° SW 04:10:18 10° SSW visible
01 Dec - 17:17:36 10° SSE 17:21:23 13° SE 17:25:08 10° E visible
01 Dec - 19:15:27 10° SSW 19:24:10 44° SE 19:32:41 10° ENE visible
01 Dec - 21:18:51 10° WSW 21:28:12 81° SSE 21:37:24 10° E visible
01 Dec - 23:23:38 10° W 23:32:55 85° S 23:42:08 10° ESE night (unlit)
02 Dec - 01:28:23 10° WNW 01:37:08 52° SSW 01:45:58 10° SE night (unlit)
02 Dec - 03:34:31 10° W 03:40:09 18° SW 03:45:51 10° SSW visible
02 Dec - 16:53:46 10° SE 16:56:24 11° ESE 16:59:01 10° ESE visible
02 Dec - 18:50:28 10° SSW 18:59:05 41° SE 19:07:29 10° ENE visible
02 Dec - 20:53:41 10° WSW 21:03:03 79° SSE 21:12:14 10° E visible
02 Dec - 22:58:27 10° W 23:07:45 87° S 23:16:58 10° E visible
03 Dec - 01:03:12 10° WNW 01:12:04 55° SSW 01:20:56 10° SE night (unlit)
03 Dec - 03:09:04 10° W 03:15:09 20° SW 03:21:17 10° S visible
03 Dec - 18:25:31 10° SSW 18:34:01 38° SE 18:42:17 10° ENE visible
03 Dec - 20:28:30 10° WSW 20:37:54 76° SSE 20:47:05 10° ENE visible
03 Dec - 22:33:15 10° W 22:42:35 87° S 22:51:48 10° E visible
04 Dec - 00:38:01 10° WNW 00:46:57 58° SSW 00:55:53 10° SE night (unlit)
04 Dec - 02:43:40 10° W 02:50:09 22° SW 02:56:41 10° S night (unlit)
04 Dec - 18:00:35 10° SSW 18:08:57 36° SE 18:17:05 10° ENE visible
04 Dec - 20:03:21 10° WSW 20:12:45 74° SSE 20:21:55 10° ENE visible
04 Dec - 22:08:03 10° W 22:17:25 88° S 22:26:38 10° E visible
05 Dec - 00:12:50 10° WNW 00:21:51 61° SSW 00:30:50 10° SE night (unlit)
05 Dec - 02:18:19 10° W 02:25:08 24° SW 02:32:00 10° S night (unlit)
05 Dec - 17:35:41 10° SSW 17:43:53 33° SE 17:51:51 10° ENE visible
05 Dec - 19:38:12 10° WSW 19:47:37 72° SSE 19:56:46 10° ENE visible
05 Dec - 21:42:51 10° W 21:52:15 89° S 22:01:28 10° E visible
05 Dec - 23:47:40 10° WNW 23:56:44 64° SSW 00:05:45 10° SE night (unlit)
06 Dec - 01:52:59 10° W 02:00:07 26° SW 02:07:16 10° S night (unlit)
06 Dec - 17:10:49 10° SSW 17:18:49 31° SE 17:26:37 10° E visible
06 Dec - 19:13:03 10° WSW 19:22:28 69° SSE 19:31:37 10° ENE visible
06 Dec - 21:17:39 10° W 21:27:05 89° S 21:36:17 10° E visible
06 Dec - 23:22:29 10° WNW 23:31:37 67° SSW 23:40:40 10° SE visible
07 Dec - 01:27:41 10° W 01:35:05 28° SW 01:42:30 10° S night (unlit)
07 Dec - 16:45:59 10° S 16:53:46 29° SE 17:01:21 10° E visible
07 Dec - 18:47:55 10° SW 18:57:20 66° SSE 19:06:27 10° ENE visible
07 Dec - 20:52:27 10° W 21:01:54 89° S 21:11:07 10° E visible
07 Dec - 22:57:18 10° WNW 23:06:30 69° SSW 23:15:34 10° ESE visible
08 Dec - 01:02:24 10° W 01:10:03 31° SW 01:17:42 10° SSE night (unlit)
08 Dec - 16:21:11 10° S 16:28:43 27° SE 16:36:04 10° E daylight
08 Dec - 18:22:47 10° SW 18:32:12 64° SSE 18:41:18 10° ENE visible
08 Dec - 20:27:15 10° W 20:36:44 88° S 20:45:58 10° E visible
08 Dec - 22:32:07 10° WNW 22:41:21 72° SSW 22:50:28 10° ESE visible
09 Dec - 00:37:09 10° WNW 00:45:01 33° SW 00:52:52 10° SSE night (unlit)
09 Dec - 15:56:25 10° S 16:03:41 25° SE 16:10:45 10° E daylight
09 Dec - 17:57:41 10° SW 18:07:04 61° SSE 18:16:10 10° ENE visible
09 Dec - 20:02:02 10° W 20:11:33 88° S 20:20:48 10° E visible
09 Dec - 22:06:56 10° WNW 22:16:13 75° SSW 22:25:21 10° ESE visible
